Location: Bonneuil
(46.1010°N, 2.9693°E)
Time: 23:53:46
(UTC+00:00)

Cosmos 1892 - Pass Details

Date: 09 April 2020
Orbit: 503 x 526 km, 82.5° (Epoch: 02 June)

Event Time Altitude Azimuth Distance (km) Brightness Sun altitude
Rises 19:55:57 0° 1° (N) 2,674 6.7 -15.1°
Reaches altitude 10° 19:58:22 10° 14° (NNE) 1,780 5.6 -15.4°
Maximum altitude 20:01:42 26° 73° (ENE) 1,054 3.9 -15.9°
Enters shadow 20:02:06 26° 84° (E) 1,067 3.8 -16.0°
